EW2910 Weather Reports


Display with metric or nautical units.
time (UTC)temp
F
wind
direction
speed
MPH
gust
MPH
rain 1hr
in
rain 24hr
in
rain mn
in
humidity
%
barometer
mb
20260503030059 70 0 0.0 3.0 0.00 0.39 0.39 96 1013.1
20260503024603 70 0 0.0 2.0 0.00 0.39 0.39 96 1013.0
20260503023104 70 0 0.0 1.0 0.00 0.39 0.39 96 1012.9
20260503021600 70 0 0.0 4.0 0.00 0.39 0.39 96 1012.5
20260503020100 70 0 2.0 6.0 0.00 0.39 0.39 96 1012.4
20260503014624 69 225 1.0 4.0 0.00 0.39 0.39 96 1012.3
20260503013059 69 250 1.0 4.0 0.00 0.39 0.39 96 1012.2
20260503011632 69 0 0.0 0.0 0.00 0.39 0.39 96 1011.5
20260503010059 69 0 0.0 2.0 0.00 0.39 0.39 96 1011.3
20260503004605 69 0 0.0 0.0 0.00 0.39 0.39 96 1011.4
20260503003105 69 0 0.0 2.0 0.00 0.39 0.39 96 1011.2
20260503001620 69 271 0.0 3.0 0.00 0.39 0.39 96 1011.2
20260503000121 69 0 0.0 2.0 0.00 0.39 0.39 96 1011.0
20260502234605 69 245 2.0 5.0 0.01 0.39 0.39 96 1010.9
20260502233104 69 0 0.0 2.0 0.02 0.39 0.39 96 1010.8
20260502231604 69 226 2.0 3.0 0.02 0.39 0.39 96 1010.6
20260502230105 69 262 2.0 12.0 0.02 0.39 0.39 95 1011.4
20260502224614 69 0 0.0 6.0 0.02 0.38 0.38 95 1011.1
20260502223100 70 251 0.0 8.0 0.01 0.37 0.37 95 1011.0
20260502221559 69 238 4.0 8.0 0.01 0.37 0.37 95 1010.5
20260502220106 69 201 2.0 4.0 0.01 0.37 0.37 95 1010.9
20260502214600 68 224 1.0 6.0 0.01 0.36 0.36 96 1010.4
20260502213125 68 231 0.0 5.0 0.02 0.36 0.36 96 1010.7
20260502211637 68 251 0.0 3.0 0.03 0.36 0.36 95 1010.8
20260502210111 68 211 2.0 5.0 0.11 0.36 0.36 95 1010.6
20260502204601 68 225 3.0 6.0 0.19 0.35 0.35 95 1010.5
20260502203104 68 0 1.0 5.0 0.18 0.34 0.34 94 1010.7
20260502201606 68 0 2.0 8.0 0.17 0.33 0.33 94 1010.7
20260502200058 69 261 8.0 19.0 0.09 0.25 0.25 89 1012.0
20260502194607 73 312 4.0 19.0 0.15 0.16 0.16 85 1012.0
20260502193057 77 266 1.0 4.0 0.16 0.16 0.16 92 1010.9
20260502191601 76 235 0.0 4.0 0.16 0.16 0.16 91 1010.7
20260502190058 78 271 5.0 14.0 0.16 0.16 0.16 84 1010.8
20260502184600 85 267 3.0 13.0 0.01 0.01 0.01 71 1010.9
20260502183108 86 245 3.0 17.0 0.00 0.00 0.00 69 1011.1
20260502181557 86 210 5.0 13.0 0.00 0.00 0.00 68 1010.9
20260502163102 88 241 6.0 20.0 0.00 0.00 0.00 66 1011.0
20260502161601 86 234 9.0 20.0 0.00 0.00 0.00 68 1011.1
20260502151607 81 175 6.0 13.0 0.00 0.00 0.00 76 1011.5
20260502123058 73 233 3.0 8.0 0.00 0.00 0.00 94 1010.6
20260502121558 72 294 3.0 7.0 0.00 0.00 0.00 95 1010.6
20260502114609 71 178 4.0 7.0 0.00 0.00 0.00 96 1010.4
20260502113059 70 193 2.0 5.0 0.00 0.00 0.00 96 1010.3
20260502111558 70 208 2.0 6.0 0.00 0.00 0.00 97 1010.2
20260502104558 69 158 1.0 3.0 0.00 0.00 0.00 97 1010.0
20260502103059 68 0 0.0 0.0 0.00 0.00 0.00 97 1009.9
20260502101626 68 0 0.0 0.0 0.00 0.00 0.00 96 1009.8
20260502100105 68 0 0.0 0.0 0.00 0.00 0.00 96 1010.0
20260502090114 68 0 0.0 0.0 0.00 0.00 0.00 96 1010.5
20260502080110 68 0 0.0 0.0 0.00 0.00 0.00 95 1010.8
20260502070127 69 243 0.0 0.0 0.00 0.00 0.00 93 1010.8
20260502064600 69 0 0.0 1.0 0.00 0.00 0.00 93 1010.9
20260502063100 69 0 0.0 1.0 0.00 0.00 0.00 92 1011.1
20260502061608 70 0 0.0 2.0 0.00 0.00 0.00 92 1011.1
20260502054600 70 0 0.0 2.0 0.00 0.00 0.00 90 1011.3
20260502053058 70 0 0.0 2.0 0.00 0.00 0.00 89 1011.4
20260502051634 70 0 0.0 1.0 0.00 0.00 0.00 89 1011.4
20260502050058 71 0 0.0 0.0 0.00 0.00 0.00 88 1011.5
20260502044558 71 0 0.0 0.0 0.00 0.00 0.00 87 1011.5
20260502043104 71 0 0.0 0.0 0.00 0.00 0.00 87 1011.3
20260502041557 72 0 0.0 0.0 0.00 0.00 0.00 87 1011.5
20260502040101 72 0 0.0 0.0 0.00 0.00 0.00 85 1011.4
20260502034600 73 0 0.0 0.0 0.00 0.00 0.00 83 1011.7
20260502033059 73 0 0.0 0.0 0.00 0.00 0.00 83 1011.7
20260502031559 74 0 0.0 0.0 0.00 0.00 0.00 81 1011.7